Tracking 20942 objects as of 15-Jul-2020
HD Live streaming from Space Station
objects crossing your sky now

SL-8 R/B

Track SL-8 R/B now!
10-day predictions


NORAD ID: 7686
Int'l Code: 1975-016J
Perigee: 1,464.4 km
Apogee: 1,725.8 km
Inclination: 74.0 °
Period: 117.9 minutes
Semi major axis: 7966 km
RCS: 6.1934 m2 (large)
Launch date: February 28, 1975
Source: Commonwealth of Independent States (former USSR) (CIS)
Launch site: PLESETSK MISSILE AND SPACE COMPLEX (PKMTR)

Note: This is a ROCKET BODY
aabbcc
Your satellite tracking list
Your tracking list is empty




NASA's NSSDC Master Catalog

Two Line Element Set (TLE):
1  7686U 75016J   20196.42386044 +.00000071 +00000-0 +77632-3 0  9991
2  7686 074.0017 014.6504 0164034 119.0362 261.9133 12.21055168022110
Source of the keplerian elements: AFSPC